Teterboro, NJ

7:31 AM EDT on March 23, 2017 (GMT -0400)
Teterboro

Weather History for KTEB - June, 2012

Change the Weather History Date:

Thursday, June 7, 2012

  Actual Average Record
Temperature  
Mean Temperature 68 °F -  
Max Temperature 81 °F 76 °F 98 °F (1999)
Min Temperature 57 °F 56 °F 48 °F (1998)
Cooling Degree Days 4    
Growing Degree Days 18 (Base 50)    
Moisture  
Dew Point 53 °F    
Average Humidity 64    
Maximum Humidity 90    
Minimum Humidity 31    
Precipitation  
Precipitation 0.03 in - - ()
Sea Level Pressure  
Sea Level Pressure 29.94 in    
Wind  
Wind Speed 2 mph (NNW)    
Max Wind Speed 9 mph    
Max Gust Speed 17 mph    
Visibility 10 miles    
Events Rain    
Averages and records for this station are not official NWS values.
T = Trace of Precipitation, MM = Missing Value Source: NWS Daily Summary

Daily Weather History Graph

Daily Weather History Graph

Search for Another Location

Airport or City:

Trip Planner

Search our weather history database for the weather conditions in past years. The results will help you decide how hot, cold, wet, or windy it might be!

Date:

Astronomy

Jun. 07, 2012 Rise Set
Actual Time 5:24 AM EDT 8:25 PM EDT
Civil Twilight 4:51 AM EDT 8:59 PM EDT
Nautical Twilight 4:09 AM EDT 9:41 PM EDT
Astronomical Twilight 3:20 AM EDT 10:30 PM EDT
Moon 11:13 PM EDT (6/7) 8:53 AM EDT (6/7)
Length of Visible Light 16h 07m
Length of Day
15h 01m
Waning Gibbous, 86% of the Moon is Illuminated
Jun 7
Waning Gibbous
Jun 11
Last Quarter
Jun 19
New
Jun 26
First Quarter
Jul 3
Full

Hourly Weather History & Observations

Time (EDT) Temp. Dew Point Humidity Pressure Visibility Wind Dir Wind Speed Gust Speed Precip Events Conditions
12:51 AM 61.0 °F 55.0 °F 81% 29.96 in 10.0 mi Calm Calm - N/A   Mostly Cloudy
1:51 AM 59.0 °F 55.9 °F 90% 29.98 in 10.0 mi NW 6.9 mph - N/A   Mostly Cloudy
2:51 AM 60.1 °F 55.9 °F 86% 29.95 in 10.0 mi Calm Calm - 0.02 in   Overcast
3:51 AM 59.0 °F 55.9 °F 90% 29.94 in 10.0 mi Calm Calm - N/A   Overcast
4:51 AM 59.0 °F 55.9 °F 90% 29.95 in 10.0 mi Calm Calm - N/A   Partly Cloudy
5:51 AM 57.9 °F 55.0 °F 90% 29.96 in 10.0 mi North 3.5 mph - N/A   Mostly Cloudy
6:51 AM 60.1 °F 57.0 °F 90% 29.97 in 10.0 mi NNW 4.6 mph - N/A   Clear
7:51 AM 63.0 °F 55.9 °F 78% 29.97 in 10.0 mi NW 4.6 mph - N/A   Clear
8:51 AM 66.9 °F 54.0 °F 63% 29.97 in 10.0 mi Variable 3.5 mph - N/A   Clear
9:51 AM 70.0 °F 53.1 °F 55% 29.96 in 10.0 mi Calm Calm - N/A   Clear
10:51 AM 72.0 °F 52.0 °F 49% 29.96 in 10.0 mi Calm Calm - N/A   Clear
11:51 AM 73.9 °F 52.0 °F 46% 29.94 in 10.0 mi Variable 3.5 mph - N/A   Clear
12:51 PM 75.0 °F 52.0 °F 44% 29.94 in 10.0 mi WNW 9.2 mph - N/A   Scattered Clouds
1:51 PM 75.9 °F 50.0 °F 40% 29.92 in 10.0 mi NW 8.1 mph - N/A   Scattered Clouds
2:51 PM 77.0 °F 46.9 °F 34% 29.90 in 10.0 mi Variable 5.8 mph - N/A   Scattered Clouds
3:51 PM 77.0 °F 48.0 °F 36% 29.89 in 10.0 mi Calm Calm - N/A   Mostly Cloudy
4:51 PM 80.1 °F 46.9 °F 31% 29.88 in 10.0 mi Variable 4.6 mph - N/A   Overcast
5:51 PM 72.0 °F 55.9 °F 57% 29.89 in 10.0 mi Variable 3.5 mph 17.3 mph 0.00 in Rain Light Rain
6:51 PM 72.0 °F 54.0 °F 53% 29.90 in 10.0 mi NE 4.6 mph - 0.01 in   Scattered Clouds
7:51 PM 70.0 °F 57.0 °F 63% 29.92 in 10.0 mi ESE 4.6 mph - N/A   Partly Cloudy
8:51 PM 68.0 °F 53.1 °F 59% 29.93 in 10.0 mi Calm Calm - N/A   Clear
9:51 PM 66.0 °F 53.1 °F 63% 29.94 in 10.0 mi Calm Calm - N/A   Clear
10:51 PM 64.9 °F 54.0 °F 68% 29.94 in 10.0 mi Calm Calm - N/A   Clear
11:51 PM 63.0 °F 54.0 °F 72% 29.94 in 10.0 mi Calm Calm - N/A   Clear